Time,TemperatureF,DewpointF,PressureIn,WindDirection,WindDirectionDegrees,WindSpeedMPH,WindSpeedGustMPH,Humidity,HourlyPrecipIn,Conditions,Clouds,dailyrainin,SoftwareType,DateUTC
2013-04-23 00:01:00,75.2,17.0,29.63,WNW,286,12.0,34.0,11,0.00,,,0.00,WUHU216DAVISVP2,2013-04-23 07:01:00,
2013-04-23 00:06:00,75.4,19.2,29.63,WNW,285,19.0,34.0,12,0.00,,,0.00,WUHU216DAVISVP2,2013-04-23 07:06:00,
2013-04-23 00:15:00,75.3,20.9,29.64,West,272,10.0,25.0,13,0.00,,,0.00,WUHU216DAVISVP2,2013-04-23 07:15:00,
2013-04-23 00:30:00,75.2,22.6,29.63,WNW,296,20.0,27.0,14,0.00,,,0.00,WUHU216DAVISVP2,2013-04-23 07:30:00,
2013-04-23 00:39:00,75.5,21.1,29.64,West,276,15.0,30.0,13,0.00,,,0.00,WUHU216DAVISVP2,2013-04-23 07:39:00,
2013-04-23 00:45:00,75.1,22.5,29.64,West,276,8.0,30.0,14,0.00,,,0.00,WUHU216DAVISVP2,2013-04-23 07:45:00,
2013-04-23 00:50:00,74.7,22.2,29.64,NW,304,13.0,30.0,14,0.00,,,0.00,WUHU216DAVISVP2,2013-04-23 07:50:00,
2013-04-23 00:55:00,74.7,23.9,29.64,West,267,14.0,30.0,15,0.00,,,0.00,WUHU216DAVISVP2,2013-04-23 07:55:00,
2013-04-23 01:00:00,74.4,23.7,29.65,WNW,302,6.0,23.0,15,0.00,,,0.00,WUHU216DAVISVP2,2013-04-23 08:00:00,
2013-04-23 01:05:00,74.1,23.4,29.65,West,265,3.0,21.0,15,0.00,,,0.00,WUHU216DAVISVP2,2013-04-23 08:05:00,
2013-04-23 01:10:00,74.5,23.7,29.65,West,262,4.0,20.0,15,0.00,,,0.00,WUHU216DAVISVP2,2013-04-23 08:10:00,
2013-04-23 01:15:00,74.4,23.7,29.65,WNW,296,11.0,18.0,15,0.00,,,0.00,WUHU216DAVISVP2,2013-04-23 08:15:00,
2013-04-23 01:20:00,74.3,25.1,29.64,WNW,292,14.0,24.0,16,0.00,,,0.00,WUHU216DAVISVP2,2013-04-23 08:20:00,
2013-04-23 01:25:00,74.2,25.1,29.64,WNW,288,23.0,25.0,16,0.00,,,0.00,WUHU216DAVISVP2,2013-04-23 08:25:00,
2013-04-23 01:30:00,73.9,24.8,29.64,WNW,294,14.0,25.0,16,0.00,,,0.00,WUHU216DAVISVP2,2013-04-23 08:30:00,
2013-04-23 01:36:00,74.0,26.4,29.64,NW,309,15.0,28.0,17,0.00,,,0.00,WUHU216DAVISVP2,2013-04-23 08:36:00,
2013-04-23 01:45:00,73.7,26.1,29.64,NW,306,18.0,28.0,17,0.00,,,0.00,WUHU216DAVISVP2,2013-04-23 08:45:00,
2013-04-23 01:55:00,74.1,26.5,29.64,WNW,302,10.0,27.0,17,0.00,,,0.00,WUHU216DAVISVP2,2013-04-23 08:55:00,
2013-04-23 02:05:00,73.9,26.3,29.65,NW,310,13.0,27.0,17,0.00,,,0.00,WUHU216DAVISVP2,2013-04-23 09:05:00,
2013-04-23 02:15:00,73.4,27.3,29.65,WNW,303,13.0,20.0,18,0.00,,,0.00,WUHU216DAVISVP2,2013-04-23 09:15:00,
2013-04-23 02:32:00,73.5,27.4,29.65,NW,309,8.0,19.0,18,0.00,,,0.00,WUHU216DAVISVP2,2013-04-23 09:32:00,
2013-04-23 02:40:00,72.4,29.0,29.66,NW,325,8.0,16.0,20,0.00,,,0.00,WUHU216DAVISVP2,2013-04-23 09:40:00,
2013-04-23 02:45:00,72.1,29.9,29.67,North,9,9.0,16.0,21,0.00,,,0.00,WUHU216DAVISVP2,2013-04-23 09:45:00,
2013-04-23 02:50:00,71.6,29.5,29.67,North,9,4.0,16.0,21,0.00,,,0.00,WUHU216DAVISVP2,2013-04-23 09:50:00,
2013-04-23 02:55:00,71.3,29.3,29.67,North,360,3.0,16.0,21,0.00,,,0.00,WUHU216DAVISVP2,2013-04-23 09:55:00,
2013-04-23 03:01:00,71.1,29.1,29.68,NE,49,7.0,16.0,21,0.00,,,0.00,WUHU216DAVISVP2,2013-04-23 10:01:00,
2013-04-23 03:06:00,71.1,29.1,29.68,NNE,23,5.0,12.0,21,0.00,,,0.00,WUHU216DAVISVP2,2013-04-23 10:06:00,
2013-04-23 03:11:00,70.6,29.8,29.68,North,5,5.0,12.0,22,0.00,,,0.00,WUHU216DAVISVP2,2013-04-23 10:11:00,
2013-04-23 03:16:00,70.3,30.6,29.69,North,355,8.0,13.0,23,0.00,,,0.00,WUHU216DAVISVP2,2013-04-23 10:16:00,
2013-04-23 03:21:00,70.1,30.5,29.69,NNW,344,5.0,13.0,23,0.00,,,0.00,WUHU216DAVISVP2,2013-04-23 10:21:00,
2013-04-23 03:26:00,69.7,30.2,29.69,NNW,336,1.0,13.0,23,0.00,,,0.00,WUHU216DAVISVP2,2013-04-23 10:26:00,
2013-04-23 03:31:00,69.1,30.8,29.70,NNW,336,0.0,13.0,24,0.00,,,0.00,WUHU216DAVISVP2,2013-04-23 10:31:00,
2013-04-23 03:36:00,68.4,30.2,29.70,NNW,336,2.0,11.0,24,0.00,,,0.00,WUHU216DAVISVP2,2013-04-23 10:36:00,
2013-04-23 03:41:00,67.8,30.7,29.70,NNW,336,1.0,5.0,25,0.00,,,0.00,WUHU216DAVISVP2,2013-04-23 10:41:00,
2013-04-23 03:46:00,67.1,31.0,29.71,NNW,336,3.0,4.0,26,0.00,,,0.00,WUHU216DAVISVP2,2013-04-23 10:46:00,
2013-04-23 03:51:00,67.0,30.8,29.71,NNW,336,1.0,4.0,26,0.00,,,0.00,WUHU216DAVISVP2,2013-04-23 10:51:00,
2013-04-23 03:56:00,66.8,30.7,29.71,NNW,336,4.0,4.0,26,0.00,,,0.00,WUHU216DAVISVP2,2013-04-23 10:56:00,
2013-04-23 04:02:00,66.5,30.4,29.72,NNW,336,4.0,5.0,26,0.00,,,0.00,WUHU216DAVISVP2,2013-04-23 11:02:00,
2013-04-23 04:07:00,66.0,30.0,29.72,WNW,284,6.0,7.0,26,0.00,,,0.00,WUHU216DAVISVP2,2013-04-23 11:07:00,
2013-04-23 04:12:00,65.8,28.9,29.72,West,271,5.0,7.0,25,0.00,,,0.00,WUHU216DAVISVP2,2013-04-23 11:12:00,
2013-04-23 04:17:00,65.6,27.7,29.72,West,271,4.0,7.0,24,0.00,,,0.00,WUHU216DAVISVP2,2013-04-23 11:17:00,
2013-04-23 04:22:00,65.4,25.5,29.73,NW,307,4.0,7.0,22,0.00,,,0.00,WUHU216DAVISVP2,2013-04-23 11:22:00,
2013-04-23 04:27:00,65.3,25.4,29.73,WNW,298,2.0,7.0,22,0.00,,,0.00,WUHU216DAVISVP2,2013-04-23 11:27:00,
2013-04-23 04:32:00,65.5,24.4,29.73,West,273,5.0,7.0,21,0.00,,,0.00,WUHU216DAVISVP2,2013-04-23 11:32:00,
2013-04-23 04:37:00,65.4,24.4,29.74,SW,215,3.0,7.0,21,0.00,,,0.00,WUHU216DAVISVP2,2013-04-23 11:37:00,
2013-04-23 04:42:00,64.9,25.0,29.74,SW,226,5.0,7.0,22,0.00,,,0.00,WUHU216DAVISVP2,2013-04-23 11:42:00,
2013-04-23 04:47:00,66.6,24.2,29.74,WSW,238,0.0,16.0,20,0.00,,,0.00,WUHU216DAVISVP2,2013-04-23 11:47:00,
2013-04-23 04:52:00,67.1,24.6,29.74,North,360,4.0,16.0,20,0.00,,,0.00,WUHU216DAVISVP2,2013-04-23 11:52:00,
2013-04-23 04:57:00,66.8,23.2,29.75,East,90,5.0,16.0,19,0.00,,,0.00,WUHU216DAVISVP2,2013-04-23 11:57:00,
2013-04-23 05:02:00,66.8,23.2,29.75,East,90,3.0,10.0,19,0.00,,,0.00,WUHU216DAVISVP2,2013-04-23 12:02:00,
2013-04-23 05:08:00,67.2,22.2,29.75,West,274,3.0,12.0,18,0.00,,,0.00,WUHU216DAVISVP2,2013-04-23 12:08:00,
2013-04-23 05:13:00,66.6,21.7,29.75,WSW,248,5.0,12.0,18,0.00,,,0.00,WUHU216DAVISVP2,2013-04-23 12:13:00,
2013-04-23 05:18:00,66.5,21.6,29.76,West,265,3.0,12.0,18,0.00,,,0.00,WUHU216DAVISVP2,2013-04-23 12:18:00,
2013-04-23 05:23:00,65.7,22.3,29.76,North,5,0.0,8.0,19,0.00,,,0.00,WUHU216DAVISVP2,2013-04-23 12:23:00,
2013-04-23 05:29:00,65.1,21.8,29.77,North,5,1.0,8.0,19,0.00,,,0.00,WUHU216DAVISVP2,2013-04-23 12:29:00,
2013-04-23 05:34:00,65.1,20.5,29.76,North,5,2.0,8.0,18,0.00,,,0.00,WUHU216DAVISVP2,2013-04-23 12:34:00,
2013-04-23 05:39:00,65.2,20.6,29.77,North,355,1.0,6.0,18,0.00,,,0.00,WUHU216DAVISVP2,2013-04-23 12:39:00,
2013-04-23 05:44:00,64.2,19.7,29.77,NNW,332,2.0,6.0,18,0.00,,,0.00,WUHU216DAVISVP2,2013-04-23 12:44:00,
2013-04-23 05:49:00,62.8,19.9,29.77,NNE,26,5.0,7.0,19,0.00,,,0.00,WUHU216DAVISVP2,2013-04-23 12:49:00,
2013-04-23 05:54:00,63.1,20.1,29.77,NNE,26,0.0,7.0,19,0.00,,,0.00,WUHU216DAVISVP2,2013-04-23 12:54:00,
2013-04-23 05:59:00,62.7,19.8,29.78,NNE,26,0.0,7.0,19,0.00,,,0.00,WUHU216DAVISVP2,2013-04-23 12:59:00,
2013-04-23 06:04:00,61.7,19.0,29.78,NNE,26,0.0,7.0,19,0.00,,,0.00,WUHU216DAVISVP2,2013-04-23 13:04:00,
2013-04-23 06:09:00,60.7,19.3,29.78,NNE,12,2.0,5.0,20,0.00,,,0.00,WUHU216DAVISVP2,2013-04-23 13:09:00,
2013-04-23 06:14:00,60.8,19.4,29.79,WNW,297,6.0,8.0,20,0.00,,,0.00,WUHU216DAVISVP2,2013-04-23 13:14:00,
2013-04-23 06:20:00,62.0,19.2,29.79,WNW,296,4.0,8.0,19,0.00,,,0.00,WUHU216DAVISVP2,2013-04-23 13:20:00,
2013-04-23 06:25:00,62.5,18.4,29.79,NW,318,9.0,9.0,18,0.00,,,0.00,WUHU216DAVISVP2,2013-04-23 13:25:00,
2013-04-23 06:30:00,63.4,17.8,29.80,WNW,284,1.0,10.0,17,0.00,,,0.00,WUHU216DAVISVP2,2013-04-23 13:30:00,
2013-04-23 06:35:00,62.9,17.4,29.80,WNW,301,3.0,10.0,17,0.00,,,0.00,WUHU216DAVISVP2,2013-04-23 13:35:00,
2013-04-23 06:40:00,62.6,18.4,29.80,WNW,301,4.0,10.0,18,0.00,,,0.00,WUHU216DAVISVP2,2013-04-23 13:40:00,
2013-04-23 06:45:00,62.4,16.9,29.80,WNW,302,5.0,7.0,17,0.00,,,0.00,WUHU216DAVISVP2,2013-04-23 13:45:00,
2013-04-23 06:50:00,62.4,16.9,29.81,North,355,4.0,8.0,17,0.00,,,0.00,WUHU216DAVISVP2,2013-04-23 13:50:00,
2013-04-23 06:55:00,62.6,17.1,29.81,North,355,0.0,8.0,17,0.00,,,0.00,WUHU216DAVISVP2,2013-04-23 13:55:00,
2013-04-23 07:00:00,62.8,17.3,29.81,North,355,0.0,8.0,17,0.00,,,0.00,WUHU216DAVISVP2,2013-04-23 14:00:00,
2013-04-23 07:05:00,63.0,17.4,29.82,ESE,117,5.0,8.0,17,0.00,,,0.00,WUHU216DAVISVP2,2013-04-23 14:05:00,
2013-04-23 07:11:00,64.0,16.8,29.82,NNE,30,20.0,22.0,16,0.00,,,0.00,WUHU216DAVISVP2,2013-04-23 14:11:00,
2013-04-23 07:16:00,64.7,15.9,29.82,NNE,24,17.0,22.0,15,0.00,,,0.00,WUHU216DAVISVP2,2013-04-23 14:16:00,
2013-04-23 07:21:00,65.1,16.2,29.82,North,10,16.0,27.0,15,0.00,,,0.00,WUHU216DAVISVP2,2013-04-23 14:21:00,
2013-04-23 07:26:00,65.3,16.4,29.82,NNE,23,7.0,27.0,15,0.00,,,0.00,WUHU216DAVISVP2,2013-04-23 14:26:00,
2013-04-23 07:31:00,65.5,15.0,29.83,NNE,19,18.0,27.0,14,0.00,,,0.00,WUHU216DAVISVP2,2013-04-23 14:31:00,
2013-04-23 07:36:00,65.6,15.1,29.83,NNE,29,23.0,27.0,14,0.00,,,0.00,WUHU216DAVISVP2,2013-04-23 14:36:00,
2013-04-23 07:41:00,65.7,15.1,29.83,NE,48,17.0,29.0,14,0.00,,,0.00,WUHU216DAVISVP2,2013-04-23 14:41:00,
2013-04-23 07:46:00,65.9,15.2,29.83,NNE,32,23.0,30.0,14,0.00,,,0.00,WUHU216DAVISVP2,2013-04-23 14:46:00,
2013-04-23 07:51:00,66.0,15.3,29.84,NNE,24,12.0,30.0,14,0.00,,,0.00,WUHU216DAVISVP2,2013-04-23 14:51:00,
2013-04-23 07:56:00,66.1,15.4,29.84,NE,46,17.0,30.0,14,0.00,,,0.00,WUHU216DAVISVP2,2013-04-23 14:56:00,
2013-04-23 08:01:00,66.4,15.6,29.84,NE,35,14.0,30.0,14,0.00,,,0.00,WUHU216DAVISVP2,2013-04-23 15:01:00,
2013-04-23 08:07:00,66.5,14.0,29.84,NNE,30,20.0,29.0,13,0.00,,,0.00,WUHU216DAVISVP2,2013-04-23 15:07:00,
2013-04-23 08:12:00,66.5,14.0,29.85,NE,44,20.0,29.0,13,0.00,,,0.00,WUHU216DAVISVP2,2013-04-23 15:12:00,
2013-04-23 08:17:00,66.4,13.9,29.85,NE,36,17.0,29.0,13,0.00,,,0.00,WUHU216DAVISVP2,2013-04-23 15:17:00,
2013-04-23 08:22:00,66.5,14.0,29.85,NE,36,15.0,29.0,13,0.00,,,0.00,WUHU216DAVISVP2,2013-04-23 15:22:00,
2013-04-23 08:27:00,66.6,14.1,29.85,NE,48,17.0,30.0,13,0.00,,,0.00,WUHU216DAVISVP2,2013-04-23 15:27:00,
2013-04-23 08:32:00,67.0,12.5,29.85,NNE,32,19.0,30.0,12,0.00,,,0.00,WUHU216DAVISVP2,2013-04-23 15:32:00,
2013-04-23 08:37:00,67.4,12.8,29.86,NNE,22,18.0,30.0,12,0.00,,,0.00,WUHU216DAVISVP2,2013-04-23 15:37:00,
2013-04-23 08:42:00,67.3,12.7,29.86,NNE,28,15.0,30.0,12,0.00,,,0.00,WUHU216DAVISVP2,2013-04-23 15:42:00,
2013-04-23 08:47:00,67.4,12.8,29.86,NNE,26,25.0,27.0,12,0.00,,,0.00,WUHU216DAVISVP2,2013-04-23 15:47:00,
2013-04-23 08:52:00,67.3,12.7,29.86,NE,36,18.0,27.0,12,0.00,,,0.00,WUHU216DAVISVP2,2013-04-23 15:52:00,
2013-04-23 08:58:00,67.7,13.1,29.86,NE,35,20.0,27.0,12,0.00,,,0.00,WUHU216DAVISVP2,2013-04-23 15:58:00,
2013-04-23 09:03:00,67.9,13.2,29.87,NNE,31,19.0,27.0,12,0.00,,,0.00,WUHU216DAVISVP2,2013-04-23 16:03:00,
2013-04-23 09:08:00,67.9,13.2,29.87,North,360,14.0,25.0,12,0.00,,,0.00,WUHU216DAVISVP2,2013-04-23 16:08:00,
2013-04-23 09:13:00,67.7,13.1,29.87,NE,38,15.0,25.0,12,0.00,,,0.00,WUHU216DAVISVP2,2013-04-23 16:13:00,
2013-04-23 09:18:00,68.1,13.4,29.87,NNE,17,14.0,25.0,12,0.00,,,0.00,WUHU216DAVISVP2,2013-04-23 16:18:00,
2013-04-23 09:23:00,68.3,13.5,29.87,NNE,28,17.0,25.0,12,0.00,,,0.00,WUHU216DAVISVP2,2013-04-23 16:23:00,
2013-04-23 09:28:00,68.5,13.7,29.87,North,355,13.0,25.0,12,0.00,,,0.00,WUHU216DAVISVP2,2013-04-23 16:28:00,
2013-04-23 09:33:00,68.7,13.8,29.87,NNE,15,10.0,23.0,12,0.00,,,0.00,WUHU216DAVISVP2,2013-04-23 16:33:00,
2013-04-23 09:38:00,69.2,12.2,29.87,NNE,24,14.0,23.0,11,0.00,,,0.00,WUHU216DAVISVP2,2013-04-23 16:38:00,
2013-04-23 09:43:00,69.1,12.1,29.87,NNE,26,17.0,23.0,11,0.00,,,0.00,WUHU216DAVISVP2,2013-04-23 16:43:00,
2013-04-23 09:48:00,69.2,12.2,29.88,NE,40,15.0,23.0,11,0.00,,,0.00,WUHU216DAVISVP2,2013-04-23 16:48:00,
2013-04-23 09:54:00,69.3,12.3,29.88,NE,36,15.0,23.0,11,0.00,,,0.00,WUHU216DAVISVP2,2013-04-23 16:54:00,
2013-04-23 09:59:00,69.3,12.3,29.88,North,349,20.0,23.0,11,0.00,,,0.00,WUHU216DAVISVP2,2013-04-23 16:59:00,
2013-04-23 10:04:00,70.1,12.9,29.88,NE,44,10.0,23.0,11,0.00,,,0.00,WUHU216DAVISVP2,2013-04-23 17:04:00,
2013-04-23 10:09:00,70.3,10.8,29.88,North,360,15.0,23.0,10,0.00,,,0.00,WUHU216DAVISVP2,2013-04-23 17:09:00,
2013-04-23 10:14:00,70.5,13.2,29.88,NNE,31,14.0,23.0,11,0.00,,,0.00,WUHU216DAVISVP2,2013-04-23 17:14:00,
2013-04-23 10:19:00,70.4,11.2,29.88,NE,36,9.0,23.0,10,0.00,,,0.00,WUHU216DAVISVP2,2013-04-23 17:19:00,
2013-04-23 10:24:00,70.6,11.3,29.88,NNE,13,20.0,25.0,10,0.00,,,0.00,WUHU216DAVISVP2,2013-04-23 17:24:00,
2013-04-23 10:29:00,70.3,11.1,29.88,NNE,31,15.0,25.0,10,0.00,,,0.00,WUHU216DAVISVP2,2013-04-23 17:29:00,
2013-04-23 10:34:00,70.6,11.3,29.88,NNE,23,15.0,25.0,10,0.00,,,0.00,WUHU216DAVISVP2,2013-04-23 17:34:00,
2013-04-23 10:39:00,70.9,11.3,29.88,NE,37,18.0,25.0,10,0.00,,,0.00,WUHU216DAVISVP2,2013-04-23 17:39:00,
2013-04-23 10:44:00,71.0,11.4,29.88,NNE,13,15.0,24.0,10,0.00,,,0.00,WUHU216DAVISVP2,2013-04-23 17:44:00,
2013-04-23 10:50:00,71.3,11.6,29.88,NE,44,16.0,25.0,10,0.00,,,0.00,WUHU216DAVISVP2,2013-04-23 17:50:00,
2013-04-23 10:55:00,71.6,11.8,29.88,NNE,24,15.0,25.0,10,0.00,,,0.00,WUHU216DAVISVP2,2013-04-23 17:55:00,
2013-04-23 11:00:00,71.7,11.9,29.88,NNE,29,12.0,25.0,10,0.00,,,0.00,WUHU216DAVISVP2,2013-04-23 18:00:00,
2013-04-23 11:05:00,71.5,11.8,29.88,North,10,13.0,23.0,10,0.00,,,0.00,WUHU216DAVISVP2,2013-04-23 18:05:00,
2013-04-23 11:10:00,71.9,12.1,29.88,NE,34,13.0,23.0,10,0.00,,,0.00,WUHU216DAVISVP2,2013-04-23 18:10:00,
2013-04-23 11:15:00,72.2,9.9,29.88,NNE,21,15.0,23.0,9,0.00,,,0.00,WUHU216DAVISVP2,2013-04-23 18:15:00,
2013-04-23 11:21:00,72.5,10.1,29.88,NNE,33,7.0,20.0,9,0.00,,,0.00,WUHU216DAVISVP2,2013-04-23 18:21:00,
2013-04-23 11:26:00,72.4,12.4,29.88,NE,44,7.0,20.0,10,0.00,,,0.00,WUHU216DAVISVP2,2013-04-23 18:26:00,
2013-04-23 11:31:00,72.8,12.7,29.87,North,350,13.0,20.0,10,0.00,,,0.00,WUHU216DAVISVP2,2013-04-23 18:31:00,
2013-04-23 11:36:00,73.1,10.6,29.87,North,350,8.0,22.0,9,0.00,,,0.00,WUHU216DAVISVP2,2013-04-23 18:36:00,
2013-04-23 11:41:00,73.3,13.4,29.87,NNW,348,14.0,22.0,10,0.00,,,0.00,WUHU216DAVISVP2,2013-04-23 18:41:00,
2013-04-23 11:46:00,73.1,10.8,29.86,North,355,9.0,22.0,9,0.00,,,0.00,WUHU216DAVISVP2,2013-04-23 18:46:00,
2013-04-23 11:51:00,73.6,11.2,29.87,NNE,32,15.0,22.0,9,0.00,,,0.00,WUHU216DAVISVP2,2013-04-23 18:51:00,
2013-04-23 11:56:00,73.6,10.9,29.87,East,89,11.0,18.0,9,0.00,,,0.00,WUHU216DAVISVP2,2013-04-23 18:56:00,
2013-04-23 12:01:00,73.2,8.0,29.86,East,96,22.0,22.0,8,0.00,,,0.00,WUHU216DAVISVP2,2013-04-23 19:01:00,
2013-04-23 12:06:00,74.0,8.6,29.86,ENE,58,9.0,29.0,8,0.00,,,0.00,WUHU216DAVISVP2,2013-04-23 19:06:00,
2013-04-23 12:11:00,73.8,8.4,29.86,ESE,113,13.0,29.0,8,0.00,,,0.00,WUHU216DAVISVP2,2013-04-23 19:11:00,
2013-04-23 12:17:00,74.0,8.9,29.86,NE,55,16.0,28.0,8,0.00,,,0.00,WUHU216DAVISVP2,2013-04-23 19:17:00,
2013-04-23 12:22:00,74.9,9.6,29.85,NE,47,10.0,19.0,8,0.00,,,0.00,WUHU216DAVISVP2,2013-04-23 19:22:00,
2013-04-23 12:27:00,74.5,9.0,29.85,ESE,118,4.0,19.0,8,0.00,,,0.00,WUHU216DAVISVP2,2013-04-23 19:27:00,
2013-04-23 12:32:00,74.3,8.8,29.85,East,91,14.0,19.0,8,0.00,,,0.00,WUHU216DAVISVP2,2013-04-23 19:32:00,
2013-04-23 12:37:00,74.3,8.8,29.85,SE,143,12.0,19.0,8,0.00,,,0.00,WUHU216DAVISVP2,2013-04-23 19:37:00,
2013-04-23 12:42:00,74.6,6.1,29.84,East,80,10.0,18.0,7,0.00,,,0.00,WUHU216DAVISVP2,2013-04-23 19:42:00,
2013-04-23 12:47:00,74.2,5.8,29.84,East,96,6.0,23.0,7,0.00,,,0.00,WUHU216DAVISVP2,2013-04-23 19:47:00,
2013-04-23 12:52:00,74.6,6.1,29.85,East,81,13.0,23.0,7,0.00,,,0.00,WUHU216DAVISVP2,2013-04-23 19:52:00,
2013-04-23 12:58:00,74.7,6.2,29.84,SSE,147,8.0,23.0,7,0.00,,,0.00,WUHU216DAVISVP2,2013-04-23 19:58:00,
2013-04-23 13:03:00,74.9,6.4,29.85,East,86,9.0,23.0,7,0.00,,,0.00,WUHU216DAVISVP2,2013-04-23 20:03:00,
2013-04-23 13:08:00,74.7,6.2,29.84,SE,131,11.0,19.0,7,0.00,,,0.00,WUHU216DAVISVP2,2013-04-23 20:08:00,
2013-04-23 13:13:00,74.4,6.2,29.84,SE,142,9.0,19.0,7,0.00,,,0.00,WUHU216DAVISVP2,2013-04-23 20:13:00,
2013-04-23 13:18:00,74.6,6.4,29.84,ESE,115,10.0,18.0,7,0.00,,,0.00,WUHU216DAVISVP2,2013-04-23 20:18:00,
2013-04-23 13:23:00,75.0,6.7,29.84,ESE,108,7.0,21.0,7,0.00,,,0.00,WUHU216DAVISVP2,2013-04-23 20:23:00,
2013-04-23 13:28:00,75.0,6.4,29.84,ENE,72,15.0,21.0,7,0.00,,,0.00,WUHU216DAVISVP2,2013-04-23 20:28:00,
2013-04-23 13:34:00,75.1,6.5,29.84,SE,140,8.0,21.0,7,0.00,,,0.00,WUHU216DAVISVP2,2013-04-23 20:34:00,
2013-04-23 13:39:00,75.1,6.5,29.83,SSE,155,5.0,18.0,7,0.00,,,0.00,WUHU216DAVISVP2,2013-04-23 20:39:00,
2013-04-23 13:44:00,75.3,6.6,29.84,East,86,14.0,19.0,7,0.00,,,0.00,WUHU216DAVISVP2,2013-04-23 20:44:00,
2013-04-23 13:49:00,75.7,6.9,29.83,ENE,75,4.0,19.0,7,0.00,,,0.00,WUHU216DAVISVP2,2013-04-23 20:49:00,
2013-04-23 13:54:00,75.9,7.3,29.83,East,94,9.0,19.0,7,0.00,,,0.00,WUHU216DAVISVP2,2013-04-23 20:54:00,
2013-04-23 13:59:00,75.8,7.3,29.83,ESE,111,4.0,19.0,7,0.00,,,0.00,WUHU216DAVISVP2,2013-04-23 20:59:00,
2013-04-23 14:04:00,76.4,7.7,29.83,SE,138,4.0,18.0,7,0.00,,,0.00,WUHU216DAVISVP2,2013-04-23 21:04:00,
2013-04-23 14:09:00,76.5,4.3,29.83,ENE,60,9.0,18.0,6,0.00,,,0.00,WUHU216DAVISVP2,2013-04-23 21:09:00,
2013-04-23 14:14:00,76.0,4.0,29.83,ESE,115,7.0,18.0,6,0.00,,,0.00,WUHU216DAVISVP2,2013-04-23 21:14:00,
2013-04-23 14:19:00,75.9,7.1,29.83,SSE,151,7.0,17.0,7,0.00,,,0.00,WUHU216DAVISVP2,2013-04-23 21:19:00,
2013-04-23 14:24:00,75.6,6.9,29.83,SSE,155,7.0,17.0,7,0.00,,,0.00,WUHU216DAVISVP2,2013-04-23 21:24:00,
2013-04-23 14:29:00,76.1,4.0,29.82,ESE,105,10.0,17.0,6,0.00,,,0.00,WUHU216DAVISVP2,2013-04-23 21:29:00,
2013-04-23 14:35:00,76.0,4.0,29.82,East,101,15.0,21.0,6,0.00,,,0.00,WUHU216DAVISVP2,2013-04-23 21:35:00,
2013-04-23 14:40:00,76.3,4.2,29.82,ENE,70,5.0,21.0,6,0.00,,,0.00,WUHU216DAVISVP2,2013-04-23 21:40:00,
2013-04-23 14:45:00,76.2,4.1,29.81,East,92,16.0,21.0,6,0.00,,,0.00,WUHU216DAVISVP2,2013-04-23 21:45:00,
2013-04-23 14:50:00,76.4,4.3,29.81,SE,125,4.0,21.0,6,0.00,,,0.00,WUHU216DAVISVP2,2013-04-23 21:50:00,
2013-04-23 14:55:00,76.6,4.4,29.81,East,85,8.0,18.0,6,0.00,,,0.00,WUHU216DAVISVP2,2013-04-23 21:55:00,
2013-04-23 15:00:00,76.6,4.4,29.81,East,91,11.0,17.0,6,0.00,,,0.00,WUHU216DAVISVP2,2013-04-23 22:00:00,
2013-04-23 15:05:00,76.3,4.2,29.81,NE,45,7.0,16.0,6,0.00,,,0.00,WUHU216DAVISVP2,2013-04-23 22:05:00,
2013-04-23 15:10:00,76.9,4.7,29.80,South,173,2.0,16.0,6,0.00,,,0.00,WUHU216DAVISVP2,2013-04-23 22:10:00,
2013-04-23 15:15:00,76.9,4.6,29.80,SE,146,8.0,16.0,6,0.00,,,0.00,WUHU216DAVISVP2,2013-04-23 22:15:00,
2013-04-23 15:20:00,77.1,4.8,29.80,SSE,149,11.0,18.0,6,0.00,,,0.00,WUHU216DAVISVP2,2013-04-23 22:20:00,
2013-04-23 15:25:00,77.0,4.7,29.80,SE,146,10.0,18.0,6,0.00,,,0.00,WUHU216DAVISVP2,2013-04-23 22:25:00,
2013-04-23 15:31:00,77.3,4.9,29.80,East,95,8.0,18.0,6,0.00,,,0.00,WUHU216DAVISVP2,2013-04-23 22:31:00,
2013-04-23 15:36:00,76.9,4.6,29.79,ESE,107,2.0,18.0,6,0.00,,,0.00,WUHU216DAVISVP2,2013-04-23 22:36:00,
2013-04-23 15:41:00,77.3,4.9,29.79,East,90,7.0,16.0,6,0.00,,,0.00,WUHU216DAVISVP2,2013-04-23 22:41:00,
2013-04-23 15:46:00,77.4,5.0,29.79,ENE,72,3.0,13.0,6,0.00,,,0.00,WUHU216DAVISVP2,2013-04-23 22:46:00,
2013-04-23 15:51:00,77.3,5.0,29.79,ENE,77,5.0,15.0,6,0.00,,,0.00,WUHU216DAVISVP2,2013-04-23 22:51:00,
2013-04-23 15:56:00,77.2,4.9,29.78,East,99,5.0,15.0,6,0.00,,,0.00,WUHU216DAVISVP2,2013-04-23 22:56:00,
2013-04-23 16:01:00,77.0,4.7,29.78,South,184,7.0,14.0,6,0.00,,,0.00,WUHU216DAVISVP2,2013-04-23 23:01:00,
2013-04-23 16:06:00,77.3,4.9,29.78,SE,128,7.0,13.0,6,0.00,,,0.00,WUHU216DAVISVP2,2013-04-23 23:06:00,
2013-04-23 16:11:00,77.6,5.1,29.78,ESE,103,7.0,13.0,6,0.00,,,0.00,WUHU216DAVISVP2,2013-04-23 23:11:00,
2013-04-23 16:16:00,77.9,5.3,29.78,SE,137,4.0,13.0,6,0.00,,,0.00,WUHU216DAVISVP2,2013-04-23 23:16:00,
2013-04-23 16:21:00,78.0,5.4,29.78,ESE,113,1.0,13.0,6,0.00,,,0.00,WUHU216DAVISVP2,2013-04-23 23:21:00,
2013-04-23 16:26:00,78.0,5.4,29.77,SE,130,9.0,11.0,6,0.00,,,0.00,WUHU216DAVISVP2,2013-04-23 23:26:00,
2013-04-23 16:32:00,78.0,5.4,29.77,ESE,113,2.0,11.0,6,0.00,,,0.00,WUHU216DAVISVP2,2013-04-23 23:32:00,
2013-04-23 16:37:00,78.0,5.4,29.77,SE,128,4.0,11.0,6,0.00,,,0.00,WUHU216DAVISVP2,2013-04-23 23:37:00,
2013-04-23 16:42:00,77.9,5.3,29.77,SSE,155,6.0,12.0,6,0.00,,,0.00,WUHU216DAVISVP2,2013-04-23 23:42:00,
2013-04-23 16:47:00,78.1,2.0,29.77,SSE,154,10.0,12.0,5,0.00,,,0.00,WUHU216DAVISVP2,2013-04-23 23:47:00,
2013-04-23 16:52:00,77.8,1.7,29.77,SE,141,7.0,12.0,5,0.00,,,0.00,WUHU216DAVISVP2,2013-04-23 23:52:00,
2013-04-23 16:57:00,77.6,1.6,29.77,SSE,150,7.0,12.0,5,0.00,,,0.00,WUHU216DAVISVP2,2013-04-23 23:57:00,
2013-04-23 17:02:00,77.5,1.5,29.77,ESE,115,3.0,12.0,5,0.00,,,0.00,WUHU216DAVISVP2,2013-04-24 00:02:00,
2013-04-23 17:07:00,77.5,1.5,29.77,SE,138,8.0,12.0,5,0.00,,,0.00,WUHU216DAVISVP2,2013-04-24 00:07:00,
2013-04-23 17:12:00,77.3,1.4,29.77,SE,141,0.0,12.0,5,0.00,,,0.00,WUHU216DAVISVP2,2013-04-24 00:12:00,
2013-04-23 17:17:00,78.0,1.9,29.76,SE,142,3.0,12.0,5,0.00,,,0.00,WUHU216DAVISVP2,2013-04-24 00:17:00,
2013-04-23 17:22:00,78.5,2.2,29.76,East,101,8.0,12.0,5,0.00,,,0.00,WUHU216DAVISVP2,2013-04-24 00:22:00,
2013-04-23 17:28:00,78.4,2.2,29.76,SE,128,6.0,11.0,5,0.00,,,0.00,WUHU216DAVISVP2,2013-04-24 00:28:00,
2013-04-23 17:33:00,78.0,1.5,29.76,ESE,123,3.0,11.0,5,0.00,,,0.00,WUHU216DAVISVP2,2013-04-24 00:33:00,
2013-04-23 17:38:00,78.1,1.6,29.76,SE,127,4.0,11.0,5,0.00,,,0.00,WUHU216DAVISVP2,2013-04-24 00:38:00,
2013-04-23 17:43:00,78.4,1.8,29.76,South,182,2.0,11.0,5,0.00,,,0.00,WUHU216DAVISVP2,2013-04-24 00:43:00,
2013-04-23 17:48:00,78.3,1.7,29.76,South,169,4.0,8.0,5,0.00,,,0.00,WUHU216DAVISVP2,2013-04-24 00:48:00,
2013-04-23 17:54:00,78.4,1.8,29.76,South,169,0.0,8.0,5,0.00,,,0.00,WUHU216DAVISVP2,2013-04-24 00:54:00,
2013-04-23 17:59:00,78.6,1.9,29.75,South,174,6.0,8.0,5,0.00,,,0.00,WUHU216DAVISVP2,2013-04-24 00:59:00,
2013-04-23 18:04:00,78.5,1.9,29.75,SE,132,1.0,7.0,5,0.00,,,0.00,WUHU216DAVISVP2,2013-04-24 01:04:00,
2013-04-23 18:09:00,78.1,1.6,29.75,SSE,164,7.0,9.0,5,0.00,,,0.00,WUHU216DAVISVP2,2013-04-24 01:09:00,
2013-04-23 18:14:00,77.9,1.8,29.75,SSE,150,3.0,11.0,5,0.00,,,0.00,WUHU216DAVISVP2,2013-04-24 01:14:00,
2013-04-23 18:20:00,77.7,5.2,29.75,SSE,152,5.0,11.0,6,0.00,,,0.00,WUHU216DAVISVP2,2013-04-24 01:20:00,
2013-04-23 18:25:00,77.5,5.1,29.75,SE,140,3.0,11.0,6,0.00,,,0.00,WUHU216DAVISVP2,2013-04-24 01:25:00,
2013-04-23 18:30:00,77.5,5.1,29.75,SE,143,5.0,9.0,6,0.00,,,0.00,WUHU216DAVISVP2,2013-04-24 01:30:00,
2013-04-23 18:36:00,77.3,4.9,29.75,SSE,150,5.0,12.0,6,0.00,,,0.00,WUHU216DAVISVP2,2013-04-24 01:36:00,
2013-04-23 18:41:00,77.2,4.8,29.75,South,175,6.0,12.0,6,0.00,,,0.00,WUHU216DAVISVP2,2013-04-24 01:41:00,
2013-04-23 18:47:00,77.1,4.8,29.75,SSE,147,8.0,13.0,6,0.00,,,0.00,WUHU216DAVISVP2,2013-04-24 01:47:00,
2013-04-23 18:52:00,76.7,4.5,29.75,SSE,154,7.0,13.0,6,0.00,,,0.00,WUHU216DAVISVP2,2013-04-24 01:52:00,
2013-04-23 18:57:00,76.6,4.4,29.75,South,179,7.0,13.0,6,0.00,,,0.00,WUHU216DAVISVP2,2013-04-24 01:57:00,
2013-04-23 19:02:00,76.4,4.3,29.75,South,170,6.0,13.0,6,0.00,,,0.00,WUHU216DAVISVP2,2013-04-24 02:02:00,
2013-04-23 19:07:00,76.1,4.0,29.75,SSE,163,10.0,12.0,6,0.00,,,0.00,WUHU216DAVISVP2,2013-04-24 02:07:00,
2013-04-23 19:12:00,76.0,4.0,29.75,South,171,8.0,12.0,6,0.00,,,0.00,WUHU216DAVISVP2,2013-04-24 02:12:00,
2013-04-23 19:18:00,75.8,3.8,29.75,South,174,6.0,12.0,6,0.00,,,0.00,WUHU216DAVISVP2,2013-04-24 02:18:00,
2013-04-23 19:23:00,75.5,3.7,29.75,South,173,5.0,12.0,6,0.00,,,0.00,WUHU216DAVISVP2,2013-04-24 02:23:00,
2013-04-23 19:28:00,75.1,6.7,29.75,South,173,5.0,10.0,7,0.00,,,0.00,WUHU216DAVISVP2,2013-04-24 02:28:00,
2013-04-23 19:33:00,74.9,6.6,29.75,South,171,4.0,9.0,7,0.00,,,0.00,WUHU216DAVISVP2,2013-04-24 02:33:00,
2013-04-23 19:39:00,74.6,6.4,29.75,South,174,3.0,8.0,7,0.00,,,0.00,WUHU216DAVISVP2,2013-04-24 02:39:00,
2013-04-23 19:44:00,74.2,6.1,29.75,South,174,4.0,8.0,7,0.00,,,0.00,WUHU216DAVISVP2,2013-04-24 02:44:00,
2013-04-23 19:49:00,74.0,5.7,29.75,South,174,5.0,8.0,7,0.00,,,0.00,WUHU216DAVISVP2,2013-04-24 02:49:00,
2013-04-23 19:54:00,73.6,5.4,29.75,South,175,4.0,7.0,7,0.00,,,0.00,WUHU216DAVISVP2,2013-04-24 02:54:00,
2013-04-23 19:59:00,73.0,7.8,29.75,South,175,2.0,7.0,8,0.00,,,0.00,WUHU216DAVISVP2,2013-04-24 02:59:00,
2013-04-23 20:04:00,72.5,7.5,29.75,South,175,3.0,7.0,8,0.00,,,0.00,WUHU216DAVISVP2,2013-04-24 03:04:00,
2013-04-23 20:09:00,72.1,7.2,29.75,South,175,1.0,6.0,8,0.00,,,0.00,WUHU216DAVISVP2,2013-04-24 03:09:00,
2013-04-23 20:14:00,71.1,3.6,29.75,South,175,3.0,6.0,7,0.00,,,0.00,WUHU216DAVISVP2,2013-04-24 03:14:00,
2013-04-23 20:19:00,68.6,4.6,29.75,South,175,5.0,5.0,8,0.00,,,0.00,WUHU216DAVISVP2,2013-04-24 03:19:00,
2013-04-23 20:24:00,67.3,6.2,29.76,South,175,4.0,6.0,9,0.00,,,0.00,WUHU216DAVISVP2,2013-04-24 03:24:00,
2013-04-23 20:30:00,67.0,6.0,29.76,South,175,5.0,6.0,9,0.00,,,0.00,WUHU216DAVISVP2,2013-04-24 03:30:00,
2013-04-23 20:35:00,66.8,5.8,29.76,South,175,4.0,6.0,9,0.00,,,0.00,WUHU216DAVISVP2,2013-04-24 03:35:00,
2013-04-23 20:40:00,65.7,5.0,29.76,South,181,4.0,6.0,9,0.00,,,0.00,WUHU216DAVISVP2,2013-04-24 03:40:00,
2013-04-23 20:45:00,64.3,6.3,29.76,NW,309,4.0,7.0,10,0.00,,,0.00,WUHU216DAVISVP2,2013-04-24 03:45:00,
2013-04-23 20:50:00,63.2,5.4,29.77,NW,309,3.0,7.0,10,0.00,,,0.00,WUHU216DAVISVP2,2013-04-24 03:50:00,
2013-04-23 20:55:00,62.3,4.7,29.77,NW,309,4.0,7.0,10,0.00,,,0.00,WUHU216DAVISVP2,2013-04-24 03:55:00,
2013-04-23 21:00:00,61.8,6.6,29.77,NW,309,3.0,7.0,11,0.00,,,0.00,WUHU216DAVISVP2,2013-04-24 04:00:00,
2013-04-23 21:05:00,61.4,6.3,29.77,NW,326,6.0,7.0,11,0.00,,,0.00,WUHU216DAVISVP2,2013-04-24 04:05:00,
2013-04-23 21:10:00,61.1,5.9,29.77,NNW,329,5.0,7.0,11,0.00,,,0.00,WUHU216DAVISVP2,2013-04-24 04:10:00,
2013-04-23 21:15:00,61.1,5.9,29.78,NNW,333,6.0,7.0,11,0.00,,,0.00,WUHU216DAVISVP2,2013-04-24 04:15:00,
2013-04-23 21:20:00,60.9,5.8,29.77,NNW,333,3.0,7.0,11,0.00,,,0.00,WUHU216DAVISVP2,2013-04-24 04:20:00,
2013-04-23 21:25:00,60.0,7.0,29.78,NNW,332,5.0,7.0,12,0.00,,,0.00,WUHU216DAVISVP2,2013-04-24 04:25:00,
2013-04-23 21:30:00,59.7,6.8,29.78,NNW,327,3.0,7.0,12,0.00,,,0.00,WUHU216DAVISVP2,2013-04-24 04:30:00,
2013-04-23 21:36:00,59.4,6.7,29.78,NNW,327,2.0,7.0,12,0.00,,,0.00,WUHU216DAVISVP2,2013-04-24 04:36:00,
2013-04-23 21:41:00,58.7,6.1,29.78,NNW,327,5.0,7.0,12,0.00,,,0.00,WUHU216DAVISVP2,2013-04-24 04:41:00,
2013-04-23 21:46:00,58.7,7.9,29.78,NNW,327,5.0,7.0,13,0.00,,,0.00,WUHU216DAVISVP2,2013-04-24 04:46:00,
2013-04-23 21:51:00,58.5,7.7,29.79,NNW,327,6.0,7.0,13,0.00,,,0.00,WUHU216DAVISVP2,2013-04-24 04:51:00,
2013-04-23 21:56:00,58.4,7.6,29.79,NNW,327,7.0,8.0,13,0.00,,,0.00,WUHU216DAVISVP2,2013-04-24 04:56:00,
2013-04-23 22:01:00,59.0,8.1,29.79,NNW,328,7.0,9.0,13,0.00,,,0.00,WUHU216DAVISVP2,2013-04-24 05:01:00,
2013-04-23 22:06:00,58.5,7.7,29.79,NNW,328,5.0,9.0,13,0.00,,,0.00,WUHU216DAVISVP2,2013-04-24 05:06:00,
2013-04-23 22:11:00,58.1,7.3,29.79,NNW,327,5.0,9.0,13,0.00,,,0.00,WUHU216DAVISVP2,2013-04-24 05:11:00,
2013-04-23 22:16:00,58.0,7.3,29.79,NNW,327,4.0,9.0,13,0.00,,,0.00,WUHU216DAVISVP2,2013-04-24 05:16:00,
2013-04-23 22:21:00,57.9,7.2,29.79,NNW,327,5.0,8.0,13,0.00,,,0.00,WUHU216DAVISVP2,2013-04-24 05:21:00,
2013-04-23 22:26:00,58.0,7.3,29.79,NNW,327,2.0,7.0,13,0.00,,,0.00,WUHU216DAVISVP2,2013-04-24 05:26:00,
2013-04-23 22:31:00,57.9,7.2,29.79,NNW,327,6.0,7.0,13,0.00,,,0.00,WUHU216DAVISVP2,2013-04-24 05:31:00,
2013-04-23 22:37:00,57.3,6.8,29.79,NNW,327,4.0,7.0,13,0.00,,,0.00,WUHU216DAVISVP2,2013-04-24 05:37:00,
2013-04-23 22:42:00,56.7,7.9,29.78,NNW,327,5.0,7.0,14,0.00,,,0.00,WUHU216DAVISVP2,2013-04-24 05:42:00,
2013-04-23 22:47:00,56.4,7.7,29.79,NNW,327,5.0,7.0,14,0.00,,,0.00,WUHU216DAVISVP2,2013-04-24 05:47:00,
2013-04-23 22:52:00,56.1,7.4,29.79,NNW,327,4.0,7.0,14,0.00,,,0.00,WUHU216DAVISVP2,2013-04-24 05:52:00,
2013-04-23 22:57:00,55.9,8.8,29.79,NNW,327,4.0,6.0,15,0.00,,,0.00,WUHU216DAVISVP2,2013-04-24 05:57:00,
2013-04-23 23:02:00,56.4,9.2,29.79,NNW,327,3.0,6.0,15,0.00,,,0.00,WUHU216DAVISVP2,2013-04-24 06:02:00,
2013-04-23 23:07:00,56.3,7.6,29.78,NNW,327,4.0,6.0,14,0.00,,,0.00,WUHU216DAVISVP2,2013-04-24 06:07:00,
2013-04-23 23:12:00,56.6,7.9,29.78,NNW,327,4.0,6.0,14,0.00,,,0.00,WUHU216DAVISVP2,2013-04-24 06:12:00,
2013-04-23 23:17:00,56.8,8.0,29.79,NNW,327,6.0,6.0,14,0.00,,,0.00,WUHU216DAVISVP2,2013-04-24 06:17:00,
2013-04-23 23:22:00,56.7,9.5,29.79,NNW,327,4.0,6.0,15,0.00,,,0.00,WUHU216DAVISVP2,2013-04-24 06:22:00,
2013-04-23 23:27:00,56.0,7.4,29.78,NNW,327,2.0,6.0,14,0.00,,,0.00,WUHU216DAVISVP2,2013-04-24 06:27:00,
2013-04-23 23:32:00,55.8,8.7,29.78,NNW,327,6.0,7.0,15,0.00,,,0.00,WUHU216DAVISVP2,2013-04-24 06:32:00,
2013-04-23 23:38:00,56.4,9.2,29.79,NNW,327,5.0,8.0,15,0.00,,,0.00,WUHU216DAVISVP2,2013-04-24 06:38:00,
2013-04-23 23:43:00,56.4,9.2,29.79,NNW,327,4.0,8.0,15,0.00,,,0.00,WUHU216DAVISVP2,2013-04-24 06:43:00,
2013-04-23 23:48:00,57.0,9.7,29.79,NNW,327,4.0,8.0,15,0.00,,,0.00,WUHU216DAVISVP2,2013-04-24 06:48:00,
2013-04-23 23:53:00,56.8,8.0,29.79,NNW,327,0.0,8.0,14,0.00,,,0.00,WUHU216DAVISVP2,2013-04-24 06:53:00,
2013-04-23 23:58:00,55.3,8.3,29.79,NNW,327,2.0,5.0,15,0.00,,,0.00,WUHU216DAVISVP2,2013-04-24 06:58:00,